Temperature
19 19 18 18 17 17 17 17 17 16 16 16 16 16 16 15 15 15 15 15 15 15 15 15 15 15 15 15 15 15 15 15 15 15 15 14 14 14 14 14 14 13 13
20 19 19 18 18 17 17 17 17 17 16 16 16 16 16 16 15 15 15 15 15 15 15 15 15 15 15 15 15 15 15 15 15 14 14 14 14 14 14 14 14 14 14
20 19 19 18 18 17 17 17 17 17 16 16 16 16 16 16 16 15 15 15 15 15 15 15 15 15 15 15 14 14 14 14 14 14 14 14 14 14 14 14 14 14 14
20 19 18 18 18 17 17 17 17 17 17 17 16 16 16 16 16 15 15 15 15 15 15 15 15 15 15 15 14 14 14 14 14 14 14 14 14 14 14 14 14 13 13
19 19 18 18 17 17 17 17 17 17 17 17 17 17 16 16 16 16 15 15 15 15 15 16 15 15 15 14 14 14 14 14 14 14 14 14 14 14 14 14 14 13 13
19 18 18 17 17 17 17 17 17 17 17 17 17 17 17 16 16 16 16 15 15 15 16 16 15 15 15 15 14 14 14 14 14 14 14 14 14 14 14 14 13 13 13
19 18 17 17 17 17 17 17 17 17 17 17 17 17 17 17 16 16 16 16 16 16 16 16 16 15 15 15 14 14 14 14 14 14 14 14 14 14 13 13 13 14 14
18 17 17 17 17 17 17 17 17 17 17 17 18 17 17 17 17 16 16 16 16 16 16 16 16 15 15 15 15 15 14 14 14 14 14 14 14 13 13 13 13 13 13
18 17 17 16 17 17 17 17 17 17 18 18 18 18 17 17 17 17 16 16 16 16 16 16 16 16 15 15 15 14 14 14 14 14 14 14 14 14 14 14 14 14 14
17 17 17 17 16 17 17 17 17 17 18 18 18 18 18 18 17 17 17 17 16 16 16 16 16 16 15 15 15 14 14 14 14 14 14 14 14 14 14 14 14 14 14
17 17 17 16 16 17 17 17 17 17 17 17 18 18 18 18 17 17 17 17 17 16 16 16 16 16 15 15 15 14 14 14 14 14 14 14 14 14 14 14 14 14 14
16 16 16 16 16 16 16 17 17 17 17 17 17 18 18 17 17 17 17 17 17 17 16 16 16 16 15 15 15 14 14 14 14 14 14 13 13 13 14 14 14 14 14
17 16 16 16 16 16 16 16 17 17 17 17 17 17 17 17 17 17 17 17 17 17 16 16 16 16 15 15 15 14 14 14 14 14 13 13 13 13 13 14 14 14 14
16 16 16 16 16 16 16 16 16 16 17 17 17 17 17 17 17 17 17 17 17 16 16 16 16 16 15 15 15 14 14 14 14 13 13 13 13 13 13 13 13 13 13
16 16 16 15 16 16 16 16 16 16 16 16 16 16 16 16 17 17 17 16 16 16 16 16 16 15 15 15 14 14 14 14 13 13 13 13 13 13 13 13 13 13 13
16 16 16 16 16 15 15 15 15 16 16 16 16 16 16 16 16 16 16 16 16 15 15 15 15 15 15 14 14 14 14 13 13 13 13 13 13 13 12 13 13 13 13
16 16 16 16 15 15 15 15 15 15 15 15 15 15 15 15 15 15 15 15 15 15 14 14 14 14 14 14 14 13 13 13 13 13 13 12 12 12 12 12 12 12 12
17 16 16 16 16 15 15 15 15 15 15 15 15 15 15 15 15 14 15 15 14 14 14 14 13 13 13 13 13 13 12 12 12 12 12 12 12 12 12 12 12 12 12
17 17 16 16 16 16 15 15 15 15 15 15 15 15 15 15 14 14 14 14 14 14 13 13 13 13 12 12 12 12 12 12 12 12 12 12 12 12 12 12 11 11 11
17 17 16 16 16 16 15 15 15 15 15 15 15 15 15 14 14 14 14 14 13 13 13 13 13 12 12 12 12 12 12 12 11 11 12 12 12 11 11 11 11 11 11
17 17 16 16 16 16 15 15 15 15 15 15 15 15 15 14 14 14 14 14 13 13 13 13 12 12 12 12 12 11 12 11 11 11 11 11 11 11 11 11 11 11 10
16 16 16 16 16 16 15 15 15 15 15 15 15 15 14 14 14 14 13 13 13 13 13 13 12 12 12 12 12 11 11 11 12 12 12 11 11 11 11 11 10 10 10
16 16 16 15 15 15 15 15 15 15 15 14 14 14 14 14 14 14 13 13 13 13 13 13 12 12 12 12 12 11 11 11 11 12 12 11 11 11 11 10 10 10 9
15 15 15 15 15 15 15 14 14 14 14 14 14 14 14 14 13 13 13 13 13 12 12 12 12 12 11 11 11 11 11 11 10 11 11 11 11 11 10 10 9 9 9
13 13 13 14 14 14 14 14 14 14 14 13 13 13 13 13 13 13 12 12 12 12 12 12 12 11 11 11 11 11 10 10 10 10 10 10 10 10 10 10 9 9 8
12 12 12 12 12 13 13 13 13 13 13 13 13 12 12 12 12 12 12 12 12 12 12 11 11 11 11 11 10 10 10 10 9 9 9 9 9 9 9 9 8 8 8
Wind_Speed
8 15 21 19 19 18 18 17 16 16 16 15 14 13 12 12 12 13 14 14 15 15 15 15 15 15 15 16 16 16 16 16 16 15 14 14 14 14 14 13 12 12 12
11 18 22 20 20 19 18 18 17 16 16 14 13 12 12 12 12 13 14 15 15 15 15 15 14 14 15 15 15 15 15 15 14 13 12 12 12 13 12 11 10 10 11
14 18 21 21 20 20 19 18 18 17 15 14 13 12 12 12 12 13 14 15 15 15 15 14 14 14 14 14 14 14 13 12 10 9 9 8 10 11 11 11 11 11 11
17 18 19 21 21 20 20 19 18 16 15 14 13 12 12 13 13 14 15 15 15 15 14 14 14 13 13 13 12 12 10 8 6 6 6 6 8 10 11 11 11 12 12
14 16 19 22 21 21 20 19 18 16 15 14 12 12 13 13 14 15 15 15 15 14 14 13 13 12 11 11 11 10 9 9 10 10 9 8 8 10 12 12 13 13 13
11 15 20 21 21 21 20 19 18 16 15 14 13 12 13 13 14 15 15 15 15 14 13 13 12 11 10 10 9 9 10 11 13 12 10 9 9 12 13 14 14 14 14
11 15 19 21 21 21 20 19 18 16 15 14 13 13 14 14 14 14 14 14 14 13 13 12 11 9 8 8 8 8 10 11 13 13 11 10 11 13 14 14 13 13 13
13 15 18 21 21 20 20 19 18 16 15 14 14 14 14 14 14 13 13 13 13 12 12 11 10 8 7 6 6 7 9 10 11 11 11 11 12 12 12 12 12 12 12
14 13 15 18 19 20 19 19 18 17 16 15 14 14 14 13 13 13 13 12 12 11 11 10 9 7 6 4 4 5 7 10 11 10 10 10 11 11 11 10 10 10 10
11 10 11 14 16 16 17 19 18 17 17 16 15 14 14 13 13 13 12 12 11 11 10 9 8 7 5 4 2 3 5 8 9 9 10 10 10 10 10 9 9 9 9
11 9 9 11 13 15 15 16 18 17 16 16 15 15 14 13 12 12 11 11 11 10 10 9 8 7 6 5 4 2 3 6 9 9 10 11 11 10 9 9 9 9 9
12 10 9 9 11 13 13 14 14 14 15 14 14 15 14 12 12 11 11 12 11 11 10 9 9 8 7 6 6 4 3 6 9 9 11 12 11 10 10 9 9 9 8
11 11 10 8 11 11 9 11 11 11 13 13 15 15 14 12 10 10 10 11 11 11 10 9 9 8 8 7 7 7 6 7 9 10 12 13 12 11 11 10 9 9 9
10 10 10 9 9 11 11 11 11 10 10 11 14 16 13 9 8 9 10 11 12 11 10 9 9 9 9 10 10 9 8 8 11 13 14 15 14 13 13 12 11 10 9
9 10 10 10 10 10 9 9 10 10 11 13 14 15 15 10 8 9 10 12 12 12 11 9 9 9 9 10 11 10 9 10 12 14 15 17 17 16 15 14 13 12 11
8 9 9 10 10 10 7 6 8 11 13 13 14 16 18 14 11 10 9 10 12 13 13 12 11 9 8 8 8 11 11 11 13 15 16 18 19 18 17 16 15 14 13
8 8 8 9 9 9 8 8 8 11 12 11 13 17 18 16 15 12 8 8 12 15 14 12 11 9 6 6 6 8 10 11 12 15 16 17 18 19 19 18 17 16 15
7 6 7 7 8 8 7 7 7 9 10 10 13 14 17 18 17 13 8 8 13 14 12 7 6 6 7 6 6 6 6 8 11 14 15 16 17 17 20 20 19 18 17
6 6 5 4 5 6 7 6 7 7 7 8 10 11 14 16 17 14 9 10 13 10 8 7 7 6 6 7 7 6 5 5 7 11 12 15 18 19 19 21 22 21 20
4 4 4 3 3 3 4 3 3 4 4 6 7 8 10 12 14 13 9 10 10 6 7 7 7 7 6 6 6 6 6 6 5 7 10 13 17 19 20 20 20 21 22
6 5 4 3 1 1 2 2 3 4 4 4 5 7 8 9 10 10 7 7 7 8 9 9 7 7 7 4 3 4 4 5 7 7 7 8 11 17 19 20 20 19 19
6 5 5 4 3 2 1 2 2 3 3 4 3 4 7 8 8 8 7 7 7 8 9 9 8 6 5 5 5 3 4 4 6 8 6 8 9 11 14 19 19 19 19
7 6 4 4 3 2 1 1 1 1 1 1 2 3 4 6 7 7 7 6 6 7 8 9 9 9 7 6 6 5 4 7 4 4 6 7 7 7 7 11 16 18 19
5 5 6 6 5 5 3 2 2 1 2 2 2 3 4 4 5 6 6 5 5 5 7 8 8 8 8 7 5 6 6 4 4 4 3 4 5 7 7 7 10 14 16
5 5 6 7 7 6 6 4 3 2 1 1 2 2 3 3 4 5 5 4 5 5 6 7 7 7 7 8 7 5 6 5 5 5 6 4 3 3 4 4 5 8 12
5 6 6 7 7 7 7 7 5 4 3 3 3 3 3 3 3 5 4 3 3 4 4 5 5 6 6 7 7 6 5 5 6 6 8 6 5 2 1 1 2 4 7
Wind_Direction
155 158 153 150 147 144 142 138 133 128 122 116 112 110 109 108 108 107 107 104 101 97 93 91 89 90 91 91 92 92 91 90 89 87 83 80 83 86 86 82 80 78 80
148 154 151 150 147 145 142 137 132 128 124 119 116 114 114 116 116 114 112 107 105 101 97 94 94 94 95 96 97 96 94 93 92 89 83 80 85 88 87 86 88 86 83
142 151 151 149 146 144 140 136 132 129 125 121 119 117 120 122 122 121 116 109 106 104 101 98 97 97 97 99 100 99 96 94 92 92 88 83 89 93 90 87 88 86 85
144 149 151 148 146 143 140 137 134 131 127 125 123 120 123 126 126 124 119 114 111 109 106 104 101 101 102 103 102 98 91 83 93 108 103 87 89 93 92 89 86 85 84
139 146 150 148 146 144 141 138 136 133 131 130 128 124 125 129 128 126 123 119 117 115 114 111 109 108 106 105 101 91 79 77 101 112 108 91 88 95 93 90 87 85 85
133 143 149 147 146 144 142 140 139 137 135 134 132 132 133 132 129 128 126 127 126 125 124 121 119 116 113 108 98 83 79 89 108 111 106 95 92 97 97 94 88 86 85
135 143 150 147 147 146 145 144 143 141 139 138 136 136 136 135 133 132 133 134 135 135 133 131 129 126 122 113 97 85 86 99 113 113 106 101 101 101 97 94 92 90 87
142 147 151 149 149 149 149 149 148 146 145 144 143 141 140 141 141 141 141 142 143 144 143 141 140 139 136 125 106 95 98 105 116 116 113 110 108 106 103 99 96 95 93
143 145 149 152 152 153 153 153 152 151 150 148 147 145 144 145 149 150 150 151 152 152 152 152 153 155 156 150 126 105 108 122 128 127 125 123 120 115 112 109 106 102 100
142 147 148 152 154 155 156 157 156 155 154 153 151 149 150 152 155 158 159 161 162 163 164 166 168 174 180 187 174 132 122 137 144 144 142 142 136 130 126 122 118 114 110
150 153 152 153 156 157 159 162 160 160 160 157 156 157 157 159 162 165 169 171 172 175 178 182 186 192 201 218 228 202 145 150 158 159 158 157 152 145 142 137 133 129 124
161 166 164 161 162 161 164 163 163 163 165 163 165 166 168 172 175 177 181 183 183 186 191 197 200 204 213 232 245 240 194 175 175 177 175 169 165 161 157 153 149 145 141
166 170 174 170 169 167 163 163 168 168 170 173 176 179 180 182 188 192 191 195 195 196 200 208 211 213 221 235 247 245 223 198 191 192 191 182 177 173 170 168 165 162 158
167 171 174 173 170 173 169 172 175 175 179 184 190 192 187 187 195 198 198 200 199 200 203 209 214 222 231 240 245 246 237 216 202 200 201 192 187 183 180 180 179 177 174
175 176 176 174 172 175 172 176 181 187 191 195 197 201 197 192 195 198 203 204 206 206 208 213 221 227 234 242 245 242 237 223 208 202 202 199 194 191 190 190 190 189 187
188 185 180 176 175 174 175 180 184 191 197 199 202 205 204 201 197 197 202 206 210 212 214 216 221 226 232 234 238 236 233 225 213 205 204 202 200 197 197 197 198 198 196
197 195 188 183 177 177 182 188 190 194 197 200 207 210 208 206 201 199 202 206 212 215 216 219 226 228 234 233 235 233 228 222 215 210 208 206 205 204 202 204 204 204 203
186 191 197 193 185 188 190 193 194 197 200 206 210 212 213 211 206 202 204 209 211 212 213 213 217 222 231 231 233 234 225 218 215 213 212 210 208 208 209 210 209 209 208
172 176 180 185 188 197 199 200 203 202 207 211 214 216 218 217 214 210 213 214 210 209 210 214 214 211 224 230 232 234 230 222 216 214 213 214 213 211 210 212 212 211 211
126 146 168 176 190 195 195 200 213 217 219 218 215 219 221 222 221 219 223 220 211 211 216 215 217 215 219 222 231 237 237 234 225 218 216 216 216 216 213 212 212 212 212
69 76 81 99 105 156 166 194 208 226 231 229 227 226 226 228 227 223 226 223 217 221 223 219 218 223 227 206 212 256 265 247 239 234 223 218 219 218 215 214 212 209 211
72 67 67 65 57 69 178 199 206 221 233 238 249 247 240 239 237 232 228 230 225 227 229 224 217 221 224 196 195 217 266 281 254 237 225 225 227 220 218 218 214 211 209
57 50 56 51 51 42 34 88 52 53 0 313 273 266 260 253 249 243 238 234 232 227 233 232 225 223 232 221 206 197 215 238 255 267 238 231 226 223 225 221 217 215 212
58 47 47 47 47 38 43 72 112 161 223 255 272 276 294 289 275 265 257 248 243 236 235 236 230 227 228 233 227 227 228 210 219 266 269 249 233 225 223 221 216 214 210
64 53 46 50 44 35 42 55 75 73 274 312 336 336 325 322 317 302 284 270 258 251 246 243 236 229 226 232 226 220 234 240 230 241 266 261 259 247 234 225 211 207 206
62 54 51 55 45 36 41 44 52 50 30 18 359 348 339 337 344 347 334 314 287 274 268 261 255 246 240 239 236 223 218 221 222 228 248 250 245 244 253 249 232 215 204
Height
1534 1538 1541 1544 1546 1548 1550 1552 1553 1554 1554 1555 1555 1555 1555 1554 1554 1555 1555 1555 1556 1556 1556 1555 1555 1555 1555 1555 1555 1556 1556 1556 1556 1556 1555 1555 1555 1555 1555 1554 1554 1554 1553
1534 1537 1541 1544 1546 1549 1550 1552 1553 1554 1555 1555 1555 1555 1555 1555 1556 1556 1557 1557 1557 1557 1557 1556 1556 1556 1556 1556 1557 1557 1557 1557 1557 1557 1557 1557 1557 1557 1557 1556 1556 1555 1555
1535 1538 1541 1544 1547 1549 1551 1552 1554 1555 1555 1556 1556 1556 1556 1557 1557 1557 1558 1558 1559 1558 1558 1557 1557 1557 1557 1557 1558 1558 1558 1558 1558 1558 1559 1559 1559 1559 1558 1558 1558 1557 1557
1536 1538 1541 1544 1547 1549 1551 1553 1554 1555 1556 1556 1557 1557 1557 1558 1558 1559 1559 1560 1560 1560 1559 1559 1559 1558 1559 1559 1559 1560 1560 1560 1560 1560 1560 1560 1561 1561 1560 1560 1560 1559 1559
1536 1539 1542 1545 1547 1549 1551 1553 1554 1555 1556 1557 1557 1558 1558 1559 1559 1560 1561 1561 1561 1561 1561 1561 1561 1560 1561 1561 1561 1561 1561 1561 1562 1562 1562 1562 1562 1562 1562 1562 1562 1561 1561
1537 1539 1542 1545 1548 1550 1552 1553 1554 1556 1556 1557 1558 1558 1559 1560 1560 1561 1562 1562 1562 1562 1562 1562 1562 1563 1563 1563 1563 1563 1563 1563 1563 1563 1564 1564 1564 1564 1563 1563 1563 1562 1562
1537 1540 1543 1546 1548 1550 1552 1553 1555 1556 1557 1558 1558 1559 1560 1560 1561 1562 1562 1563 1563 1564 1564 1564 1564 1564 1565 1565 1565 1565 1565 1565 1565 1565 1565 1565 1565 1565 1564 1564 1564 1563 1562
1537 1540 1543 1546 1548 1550 1552 1553 1555 1556 1557 1558 1559 1560 1560 1561 1562 1563 1563 1564 1564 1565 1565 1565 1566 1566 1566 1566 1566 1566 1566 1566 1566 1566 1566 1566 1566 1565 1565 1565 1564 1563 1563
1538 1541 1544 1546 1548 1551 1552 1554 1555 1556 1557 1558 1559 1560 1561 1562 1562 1563 1564 1564 1565 1565 1566 1566 1567 1567 1567 1567 1567 1567 1567 1567 1567 1567 1567 1567 1566 1566 1565 1565 1564 1563 1562
1539 1541 1543 1546 1548 1550 1552 1553 1555 1556 1557 1558 1559 1560 1561 1562 1563 1563 1564 1565 1565 1566 1566 1567 1567 1568 1568 1568 1568 1567 1567 1567 1567 1567 1567 1567 1567 1566 1565 1564 1563 1563 1562
1539 1541 1543 1545 1548 1550 1552 1553 1554 1556 1557 1558 1559 1560 1561 1562 1563 1564 1564 1565 1565 1566 1566 1567 1567 1567 1568 1568 1568 1567 1567 1567 1567 1567 1567 1567 1566 1566 1565 1564 1563 1562 1561
1538 1541 1543 1545 1547 1549 1551 1552 1554 1555 1557 1558 1559 1560 1560 1561 1562 1563 1564 1564 1565 1565 1566 1566 1566 1567 1567 1567 1567 1567 1567 1566 1566 1566 1566 1566 1566 1565 1564 1564 1563 1562 1561
1538 1540 1542 1544 1546 1548 1550 1551 1553 1554 1556 1557 1558 1559 1559 1560 1561 1562 1563 1564 1564 1565 1565 1565 1565 1566 1566 1566 1566 1566 1566 1565 1565 1565 1565 1565 1565 1564 1564 1563 1562 1561 1560
1537 1539 1541 1543 1545 1547 1549 1550 1552 1553 1554 1555 1557 1557 1558 1559 1560 1561 1561 1562 1563 1563 1564 1564 1564 1564 1565 1565 1565 1565 1565 1564 1564 1564 1564 1564 1563 1563 1562 1562 1561 1560 1559
1537 1538 1540 1542 1544 1546 1547 1549 1550 1552 1553 1554 1555 1556 1557 1557 1558 1559 1559 1560 1561 1561 1562 1562 1562 1562 1562 1563 1563 1563 1563 1562 1562 1562 1562 1562 1562 1561 1561 1560 1559 1559 1558
1536 1537 1539 1541 1542 1544 1546 1547 1549 1550 1551 1552 1553 1554 1555 1555 1556 1556 1557 1557 1558 1559 1559 1560 1560 1560 1560 1560 1560 1560 1560 1560 1559 1559 1559 1559 1559 1559 1559 1558 1558 1557 1556
1534 1536 1538 1539 1541 1542 1544 1545 1547 1548 1549 1550 1551 1552 1553 1553 1554 1554 1554 1555 1556 1556 1557 1557 1557 1557 1557 1557 1556 1557 1557 1557 1557 1556 1556 1556 1556 1556 1556 1555 1555 1555 1554
1532 1534 1536 1538 1539 1540 1542 1543 1545 1546 1547 1548 1549 1549 1550 1551 1551 1551 1551 1552 1553 1553 1553 1553 1553 1553 1553 1553 1553 1553 1553 1553 1553 1553 1553 1552 1552 1552 1552 1552 1552 1552 1551
1530 1532 1534 1535 1536 1538 1539 1541 1542 1543 1544 1545 1546 1546 1547 1548 1548 1548 1549 1549 1550 1550 1550 1550 1549 1549 1549 1549 1549 1549 1549 1549 1549 1549 1548 1548 1548 1548 1548 1548 1548 1548 1548
1527 1529 1531 1532 1534 1535 1536 1538 1539 1540 1541 1541 1542 1543 1544 1544 1545 1545 1545 1545 1546 1546 1545 1545 1545 1545 1545 1545 1545 1545 1544 1544 1544 1543 1543 1543 1543 1543 1543 1543 1543 1543 1543
1524 1526 1527 1529 1530 1531 1532 1533 1534 1535 1536 1538 1538 1539 1540 1540 1540 1540 1540 1541 1541 1541 1541 1541 1541 1541 1541 1541 1541 1539 1538 1538 1538 1537 1537 1537 1537 1537 1536 1537 1537 1537 1538
1522 1523 1524 1525 1526 1527 1528 1529 1530 1531 1532 1533 1534 1535 1535 1535 1535 1535 1535 1535 1536 1536 1536 1536 1536 1535 1535 1536 1535 1534 1532 1531 1530 1530 1530 1530 1530 1530 1530 1530 1530 1530 1531
1518 1520 1521 1522 1522 1523 1524 1525 1526 1527 1527 1528 1529 1529 1530 1530 1530 1530 1530 1530 1530 1530 1529 1530 1530 1530 1529 1529 1529 1529 1526 1522 1523 1523 1522 1522 1522 1522 1522 1523 1523 1523 1524
1515 1516 1517 1518 1519 1519 1520 1521 1521 1522 1522 1523 1524 1524 1525 1525 1525 1525 1524 1524 1524 1524 1524 1524 1524 1523 1523 1522 1522 1522 1521 1520 1519 1515 1515 1516 1515 1515 1515 1515 1515 1515 1516
1513 1513 1514 1515 1515 1516 1516 1516 1517 1517 1518 1518 1518 1518 1519 1519 1519 1518 1518 1518 1518 1518 1518 1517 1517 1517 1517 1516 1516 1515 1515 1514 1512 1511 1508 1508 1508 1508 1507 1507 1507 1508 1508
1510 1511 1511 1512 1512 1512 1512 1513 1513 1513 1513 1513 1513 1513 1513 1513 1513 1513 1512 1512 1512 1512 1511 1511 1511 1511 1510 1510 1509 1508 1508 1507 1506 1505 1503 1501 1500 1500 1500 1500 1500 1500 1500